[[{"header":{"parameterUnit":"m.s-1","parameterCategory":2,"la1":30.2991,"la2":30.254,"lo1":-89.0895,"lo2":-89.0444,"dy":0.0017,"dx":0.0017,"nx":28,"ny":28,"refTime":"2024-03-30T03:00:00:Z","depth":"0","parameterNumber":2,"parameterNumberName":"U-component_of_CURRENTS"},"data":[0,0,0,0,0,0,0,0,0,0,0,0,0,0,0,0,0,0,0,0,0,0,0,0,0,0,0,0,0,0,0,0,0,0,0,0,0,0,0,0,0,0,0,0,0,0,0,0,0,0,0,0,0,0,0,0,0,0,0.2766,0.2767,0,0.2833,0.2833,0.2834,0.2851,0.2851,0.2851,0.2851,0.2872,0.2873,0.2874,0,0,0,0,0,0,0,0,0,0,0,0,0,0.2682,0.2683,0.2766,0.2767,0.2768,0.2833,0.2833,0.2834,0.2851,0.2851,0.2851,0.2851,0.2872,0.2873,0.2874,0,0,0,0,0,0,0,0,0,0,0,0,0,0.2728,0.2683,0.2766,0.2786,0.2789,0.2833,0.2833,0.2834,0.2851,0.2851,0.2851,0.2851,0.2872,0.2873,0.2874,0.2887,0,0,0.2877,0.2878,0,0,0,0,0,0,0,0,0.2726,0.2731,0.2782,0.2785,0.2788,0.2835,0.2812,0.285,0.2851,0.2825,0.2851,0.285,0.2857,0.286,0.287,0.2888,0.2889,0.2877,0.2878,0.2879,0.2879,0,0,0,0,0,0,0,0.2722,0.2729,0.279,0.2784,0.2787,0.2802,0.2808,0.2819,0.284,0.2828,0.283,0.2841,0.2858,0.2869,0.2871,0.2889,0.2877,0.2878,0.2879,0.2879,0.297,0.2971,0,0,0,0,0,0,0.2718,0.2725,0.2788,0.2793,0.2758,0.2804,0.281,0.2819,0.2841,0.2845,0.2841,0.2841,0.2867,0.2869,0.2872,0.2927,0.2879,0.288,0.288,0.2968,0.297,0.2972,0,0,0,0,0,0,0.2716,0.2723,0.2786,0.2762,0.2772,0.2805,0.2815,0.282,0.2837,0.2852,0.2854,0.2853,0.2867,0.287,0.2904,0.2926,0.288,0.2881,0.2966,0.2969,0.2971,0.3012,0,0,0,0,0,0,0.2713,0.2721,0.2725,0.2762,0.2773,0.2821,0.2816,0.2822,0.2845,0.2846,0.2863,0.2864,0.2867,0.2903,0.2906,0.2927,0.2882,0.2964,0.2967,0.297,0.3009,0.3016,0.3022,0,0,0,0,0,0.271,0.2715,0.2725,0.2733,0.2778,0.2823,0.283,0.2851,0.2846,0.2862,0.288,0.2864,0.2925,0.2905,0.2908,0.293,0.2962,0.2966,0.297,0.3006,0.3014,0.3022,0,0,0,0,0,0,0.2677,0.2719,0.273,0.2747,0.2788,0.2827,0.284,0.2855,0.2881,0.2881,0.2886,0.289,0.2935,0.2928,0.2906,0.2968,0.2941,0.2945,0.2967,0.2975,0.2982,0.2979,0.2883,0,0,0,0,0,0.2674,0.2687,0.2736,0.2749,0.277,0.2806,0.2825,0.2846,0.2875,0.2886,0.2901,0.292,0.2953,0.2959,0.2987,0.3011,0.3048,0.3029,0.3035,0.3041,0.3043,0.3125,0.314,0.2985,0.2985,0.2985,0,0,0.2663,0.2688,0.2694,0.2743,0.2772,0.2809,0.2816,0.2853,0.2881,0.2884,0.292,0.295,0.297,0.3012,0.3028,0.3005,0.3111,0.3046,0.305,0.3049,0.3131,0.3146,0.3159,0.2987,0.2987,0.2986,0,0,0.2651,0.2674,0.2686,0.2723,0.2776,0.281,0.2822,0.2873,0.2894,0.2938,0.2958,0.3001,0.303,0.3061,0.3075,0.3132,0.3155,0.3139,0.3156,0.3237,0.325,0.3262,0.3357,0.3377,0.3129,0.3129,0.3129,0,0.2636,0.2664,0.2698,0.2726,0.2761,0.281,0.2845,0.2876,0.2932,0.2962,0.2952,0.3043,0.3054,0.312,0.3141,0.3146,0.3204,0.3121,0.3246,0.3258,0.327,0.3363,0.3385,0.3131,0.3131,0.3131,0.3131,0,0.2639,0.2669,0.2683,0.2737,0.2778,0.2819,0.2877,0.2917,0.2948,0.2988,0.3065,0.3096,0.3152,0.3161,0.3164,0.3254,0.3276,0.3256,0.3223,0.3288,0.3383,0.3405,0.3135,0.3134,0.3133,0.3133,0,0,0.2592,0.2671,0.2676,0.2711,0.2794,0.2829,0.2886,0.2965,0.3016,0.3061,0.3133,0.3181,0.3215,0.3235,0.3255,0.3305,0.344,0.3312,0.3315,0.3402,0.3647,0.3633,0.3656,0.3449,0.3452,0.3455,0.369,0,0.2593,0.2643,0.2689,0.275,0.2792,0.2862,0.2915,0.2989,0.3057,0.314,0.3186,0.3268,0.3238,0.3286,0.3332,0.3429,0.3495,0.3379,0.3573,0.358,0.3556,0.3679,0.3547,0.3743,0.3712,0.3715,0.3718,0,0.2584,0.2628,0.2684,0.2779,0.2804,0.2844,0.296,0.3019,0.3142,0.32,0.3283,0.3343,0.3448,0.3403,0.3582,0.3517,0.3586,0.3637,0.3647,0.363,0.3605,0.3668,0.3783,0.3658,0.3751,0.3749,0.3746,0,0.2544,0.2625,0.2673,0.2704,0.2814,0.2851,0.2914,0.3034,0.3115,0.3258,0.3346,0.3458,0.3555,0.364,0.3749,0.3691,0.3948,0.3883,0.3934,0.3935,0.3856,0.3844,0.3863,0.4007,0.4007,0.4006,0.4005,0,0.2538,0.2576,0.2653,0.2683,0.2749,0.2829,0.2926,0.3006,0.3154,0.3269,0.3379,0.3498,0.3622,0.3775,0.3825,0.3975,0.4023,0.3977,0.4004,0.387,0.3856,0.3766,0.372,0.4015,0.4013,0.4011,0.401,0,0.2503,0.2552,0.2613,0.2709,0.2733,0.2785,0.2926,0.3008,0.3151,0.3311,0.3373,0.3592,0.3793,0.3917,0.4103,0.4102,0.4115,0.4251,0.4094,0.4097,0.3972,0.3934,0.3879,0.3763,0.4347,0.4348,0.4349,0,0.2496,0.2519,0.2609,0.2645,0.2689,0.2772,0.2837,0.2984,0.3081,0.3359,0.3435,0.37,0.385,0.414,0.4225,0.4363,0.419,0.4293,0.4129,0.3983,0.3963,0.3772,0.3661,0.4065,0.4064,0.4063,0.4062,0,0.2495,0.2521,0.2577,0.2627,0.2686,0.276,0.2857,0.2926,0.3119,0.3271,0.3482,0.3634,0.3942,0.4047,0.425,0.4294,0.4074,0.4272,0.4161,0.379,0.3545,0.3439,0.3905,0.4051,0.4052,0.4053,0.4054,0.4054,0.2496,0.2517,0.257,0.2623,0.2678,0.2723,0.2747,0.2868,0.3003,0.3192,0.341,0.3587,0.3826,0.4096,0.4117,0.4077,0.4038,0.395,0.3941,0.3778,0.3569,0.4023,0.4159,0.4161,0.4162,0.4163,0.4164,0,0.249,0.2509,0.2559,0.26,0.2623,0.2669,0.2742,0.2748,0.2838,0.3061,0.3233,0.3487,0.3618,0.3758,0.3872,0.3765,0.3545,0.3656,0.3339,0.3264,0.3725,0.361,0.3581,0.3581,0.3581,0.3582,0.3582,0.3582,0.2491,0.2516,0.2534,0.254,0.2552,0.2526,0.2537,0.2558,0.2655,0.2809,0.2954,0.3149,0.3436,0.3627,0.3567,0.3485,0.3191,0.3079,0.3043,0.3355,0.3378,0.34,0.3277,0.3179,0.3179,0.2404,0.2399,0.2395]},{"header":{"parameterUnit":"m.s-1","parameterCategory":2,"la1":30.2991,"la2":30.254,"lo1":-89.0895,"lo2":-89.0444,"dy":0.0017,"dx":0.0017,"nx":28,"ny":28,"refTime":"2024-03-30T03:00:00:Z","depth":"0","parameterNumber":3,"parameterNumberName":"V-component_of_CURRENTS"},"data":[0,0,0,0,0,0,0,0,0,0,0,0,0,0,0,0,0,0,0,0,0,0,0,0,0,0,0,0,0,0,0,0,0,0,0,0,0,0,0,0,0,0,0,0,0,0,0,0,0,0,0,0,0,0,0,0,0,0,0.0205,0.0205,0,0.0127,0.0126,0.0125,0.0067,0.0067,0.0066,0.0066,-0.0051,-0.0053,-0.0056,0,0,0,0,0,0,0,0,0,0,0,0,0,0.027,0.0269,0.0206,0.0205,0.0204,0.0128,0.0126,0.0125,0.0067,0.0066,0.0066,0.0065,-0.005,-0.0053,-0.0056,0,0,0,0,0,0,0,0,0,0,0,0,0,0.0221,0.0269,0.0206,0.0166,0.0162,0.0128,0.0126,0.0125,0.0067,0.0066,0.0066,0.0065,-0.0049,-0.0053,-0.0057,-0.0068,0,0,-0.0069,-0.0071,0,0,0,0,0,0,0,0,0.0224,0.0219,0.0173,0.0169,0.0164,0.0107,0.0106,0.0059,0.0067,0.0102,0.0066,0.0065,-0.0001,-0.0009,-0.0022,-0.0074,-0.0079,-0.0069,-0.0072,-0.0074,-0.0075,0,0,0,0,0,0,0,0.0227,0.0222,0.0174,0.0172,0.0167,0.0141,0.0133,0.0097,0.0054,0.0099,0.0095,0.0088,-0.0003,-0.0018,-0.0026,-0.008,-0.0069,-0.0073,-0.0075,-0.0077,-0.0154,-0.0154,0,0,0,0,0,0,0.0241,0.0225,0.0176,0.0171,0.0194,0.014,0.0132,0.0125,0.0055,0.0044,0.0088,0.0085,-0.0011,-0.0021,-0.003,-0.0035,-0.0074,-0.0077,-0.008,-0.0154,-0.0154,-0.0154,0,0,0,0,0,0,0.0243,0.0238,0.0179,0.0197,0.0188,0.014,0.0133,0.0124,0.011,0.0048,0.0036,0.0083,-0.0012,-0.0024,-0.0053,-0.0041,-0.0079,-0.0083,-0.0155,-0.0154,-0.0154,-0.0054,0,0,0,0,0,0,0.0245,0.0239,0.0242,0.0198,0.0187,0.017,0.0133,0.0123,0.0107,0.0102,0.004,0.0028,-0.0014,-0.0047,-0.0057,-0.0047,-0.0086,-0.0155,-0.0155,-0.0154,-0.0057,-0.005,-0.0043,0,0,0,0,0,0.0248,0.0255,0.0242,0.0236,0.0192,0.0171,0.0163,0.0126,0.0107,0.0109,0.0068,0.003,-0.005,-0.0049,-0.0062,-0.0052,-0.0156,-0.0155,-0.0154,-0.006,-0.0051,-0.0043,0,0,0,0,0,0,0.0285,0.0249,0.0234,0.023,0.0208,0.0161,0.0159,0.0134,0.0102,0.0098,0.0037,0.0023,0.0002,-0.004,-0.0037,-0.0074,-0.011,-0.0112,-0.0035,-0.0027,-0.002,-0.0001,-0.0089,0,0,0,0,0,0.0296,0.0292,0.0255,0.0254,0.0246,0.0205,0.0192,0.017,0.0135,0.012,0.0077,0.0031,-0.0004,-0.0026,-0.0063,-0.0081,-0.011,-0.0086,-0.0078,-0.0072,-0.0066,-0.0099,-0.0094,-0.0151,-0.0151,-0.0151,0,0,0.0308,0.029,0.0286,0.0262,0.0241,0.024,0.0195,0.0185,0.0185,0.0113,0.01,0.0057,-0.0003,-0.0021,-0.0035,-0.0055,-0.0066,-0.0071,-0.0065,-0.0062,-0.0098,-0.0092,-0.0087,-0.015,-0.015,-0.015,0,0,0.0335,0.0318,0.0325,0.0312,0.029,0.0271,0.0272,0.0235,0.0218,0.0202,0.0152,0.0117,0.0063,0.0024,-0.0004,0.0017,-0.0025,0.0006,0.0055,0.0023,0.0028,0.0032,0.0028,0.003,0.0007,0.0007,0.0007,0,0.0353,0.0355,0.0325,0.0331,0.0327,0.029,0.0302,0.0284,0.0243,0.0235,0.0211,0.0135,0.0083,0.0056,0.0064,0.0034,0.0021,0.0031,0.0035,0.0038,0.004,0.0034,0.0035,0.0012,0.0011,0.0011,0.001,0,0.0381,0.0386,0.0392,0.0388,0.0384,0.039,0.0365,0.0361,0.0339,0.0314,0.0287,0.022,0.0176,0.0151,0.0114,0.0104,0.0094,0.0053,0.0019,0.0052,0.0043,0.0043,0.0019,0.0017,0.0016,0.0014,0,0,0.041,0.0412,0.0414,0.0428,0.0416,0.042,0.0428,0.0422,0.0441,0.0387,0.0401,0.032,0.0288,0.0254,0.02,0.0164,0.0171,0.0126,0.0122,0.0135,0.0131,0.013,0.0129,0.0137,0.0137,0.0137,0.0129,0,0.0442,0.0474,0.0461,0.0497,0.0515,0.0492,0.0509,0.0501,0.0492,0.0501,0.0424,0.0421,0.0327,0.0328,0.0272,0.0208,0.0172,0.0179,0.0086,0.0084,0.0088,0.0128,0.011,0.0101,0.0128,0.0128,0.0128,0,0.0472,0.0494,0.0533,0.0565,0.0571,0.0591,0.0623,0.0635,0.0632,0.0627,0.0595,0.0552,0.0504,0.0425,0.0309,0.0325,0.0236,0.0169,0.0167,0.0128,0.0081,0.0065,0.0099,-0.0118,0.0127,0.0127,0.0127,0,0.0515,0.0544,0.0582,0.0589,0.0617,0.0639,0.0663,0.0675,0.0727,0.0729,0.0787,0.0679,0.0694,0.0541,0.0407,0.0366,0.0293,0.0213,0.0121,0.0121,0.0067,0.0062,-0.0114,0.0121,0.0121,0.0121,0.0121,0,0.0556,0.059,0.0611,0.0636,0.0703,0.0702,0.0793,0.0794,0.086,0.0973,0.0872,0.0957,0.0729,0.0665,0.0476,0.0328,0.0343,0.0146,0.0119,0.0103,0.0102,-0.0123,-0.0233,0.0121,0.0121,0.0121,0.0121,0,0.0607,0.0609,0.0668,0.071,0.0727,0.0786,0.0904,0.0991,0.1031,0.1187,0.1213,0.1193,0.1114,0.0879,0.0671,0.0469,0.0174,0.0223,0.0239,0.0212,-0.011,-0.0212,-0.0378,-0.0455,0.0105,0.0105,0.0105,0,0.0641,0.067,0.0732,0.0787,0.0816,0.0911,0.1002,0.1066,0.1193,0.1363,0.1466,0.1444,0.1473,0.1158,0.0775,0.044,0.0218,0.0198,0.0086,-0.0114,-0.025,-0.0319,-0.0376,0.0061,0.0061,0.0061,0.006,0,0.0724,0.0739,0.0797,0.0906,0.1002,0.1127,0.127,0.1393,0.153,0.1683,0.1883,0.1923,0.1637,0.1307,0.0834,0.057,0.005,0.0181,-0.0046,-0.0307,-0.0375,-0.0464,0.0071,0.0057,0.0058,0.0058,0.0058,0.0058,0.0803,0.0864,0.0945,0.1054,0.1174,0.1359,0.1498,0.1685,0.1917,0.2168,0.218,0.2264,0.1742,0.1097,0.0742,0.0023,0.0045,-0.0221,-0.0325,-0.0374,-0.0467,0.0085,0.0047,0.0048,0.0048,0.0048,0.0048,0,0.0916,0.0985,0.1095,0.1248,0.1413,0.1446,0.1696,0.1863,0.2163,0.2349,0.2508,0.225,0.1646,0.0979,0.0041,-0.0412,-0.0583,-0.0672,-0.0814,-0.0847,-0.0384,-0.0409,-0.0523,-0.0522,-0.0522,-0.0522,-0.0522,-0.0521,0.0991,0.1117,0.1172,0.1444,0.1557,0.1795,0.1946,0.2186,0.2352,0.256,0.2561,0.2525,0.1958,0.0394,-0.0693,-0.0945,-0.1225,-0.1282,-0.1403,-0.1151,-0.1118,-0.1087,-0.114,-0.1405,-0.1406,-0.1829,-0.1834,-0.1837]}],[{"header":{"parameterUnit":"m.s-1","parameterCategory":2,"la1":30.2991,"la2":30.254,"lo1":-89.0895,"lo2":-89.0444,"dy":0.0017,"dx":0.0017,"nx":28,"ny":28,"refTime":"2024-03-30T03:00:00:Z","depth":"2","parameterNumber":2,"parameterNumberName":"U-component_of_CURRENTS"},"data":[0,0,0,0,0,0,0,0,0,0,0,0,0,0,0,0,0,0,0,0,0,0,0,0,0,0,0,0,0,0,0,0,0,0,0,0,0,0,0,0,0,0,0,0,0,0,0,0,0,0,0,0,0,0,0,0,0,0,0.2361,0.2362,0,0.2405,0.2405,0.2406,0.2428,0.2429,0.2429,0.2429,0.246,0.246,0.2461,0,0,0,0,0,0,0,0,0,0,0,0,0,0.2265,0.2267,0.2361,0.2362,0.2363,0.2405,0.2405,0.2406,0.2428,0.2429,0.2429,0.2429,0.246,0.246,0.2461,0,0,0,0,0,0,0,0,0,0,0,0,0,0.2305,0.2267,0.2361,0.2381,0.2384,0.2405,0.2405,0.2406,0.2428,0.2429,0.2429,0.243,0.2459,0.246,0.2461,0.2457,0,0,0.2463,0.2464,0,0,0,0,0,0,0,0,0.2303,0.2308,0.2377,0.238,0.2383,0.2414,0.2383,0.2423,0.2428,0.2408,0.2429,0.243,0.2445,0.2447,0.245,0.2459,0.246,0.2463,0.2464,0.2464,0.2465,0,0,0,0,0,0,0,0.23,0.2306,0.2375,0.2378,0.2382,0.2378,0.2384,0.239,0.2421,0.241,0.2412,0.2422,0.2446,0.2449,0.2451,0.246,0.2463,0.2464,0.2465,0.2465,0.2561,0.2563,0,0,0,0,0,0,0.2302,0.2304,0.2374,0.2377,0.2346,0.2379,0.2386,0.2401,0.2421,0.2426,0.2421,0.2423,0.2448,0.245,0.2452,0.252,0.2464,0.2465,0.2466,0.2559,0.2561,0.2563,0,0,0,0,0,0,0.23,0.2308,0.2372,0.2343,0.2352,0.2381,0.2398,0.2402,0.2415,0.2431,0.2434,0.2432,0.2448,0.2451,0.2488,0.2519,0.2465,0.2466,0.2556,0.2559,0.2562,0.2611,0,0,0,0,0,0,0.2297,0.2307,0.2322,0.2344,0.2354,0.2397,0.2398,0.2403,0.2421,0.2424,0.2441,0.2443,0.2449,0.2487,0.2488,0.2519,0.2467,0.2554,0.2558,0.2561,0.2606,0.2615,0.2622,0,0,0,0,0,0.2293,0.231,0.2323,0.2332,0.2373,0.2398,0.2403,0.2422,0.2421,0.2433,0.2457,0.2443,0.2513,0.2489,0.249,0.2522,0.2552,0.2556,0.2561,0.2603,0.2613,0.2622,0,0,0,0,0,0,0.2276,0.2315,0.2329,0.2358,0.2383,0.2403,0.2419,0.2425,0.245,0.246,0.2463,0.2468,0.2514,0.2513,0.2486,0.2564,0.2532,0.2537,0.2564,0.2573,0.2581,0.2575,0.2467,0,0,0,0,0,0.228,0.2303,0.2338,0.236,0.2376,0.2396,0.241,0.2427,0.2451,0.2462,0.2479,0.2505,0.2533,0.2548,0.2571,0.2605,0.2625,0.263,0.2638,0.2645,0.2644,0.2702,0.2715,0.2578,0.2578,0.2578,0,0,0.2277,0.2303,0.2315,0.2358,0.2378,0.2401,0.2405,0.2437,0.2459,0.2461,0.2503,0.253,0.2548,0.2598,0.2618,0.2601,0.2702,0.2651,0.2656,0.2651,0.2708,0.2722,0.2733,0.2582,0.2581,0.2581,0,0,0.2276,0.231,0.2328,0.2354,0.2397,0.2413,0.2423,0.2461,0.2485,0.2525,0.2544,0.2591,0.2622,0.2654,0.2668,0.273,0.2742,0.2746,0.2779,0.2836,0.2848,0.2858,0.2928,0.2944,0.275,0.275,0.275,0,0.2272,0.2305,0.2335,0.2361,0.2389,0.2417,0.2446,0.2468,0.2515,0.2549,0.2547,0.2635,0.2646,0.2713,0.2742,0.2746,0.2789,0.2737,0.2846,0.2856,0.2865,0.2935,0.2952,0.2753,0.2752,0.2752,0.2752,0,0.2284,0.2317,0.2331,0.2374,0.2406,0.2438,0.2481,0.2523,0.2553,0.2582,0.2662,0.2695,0.2751,0.2767,0.2769,0.2854,0.2869,0.2847,0.2816,0.2882,0.2952,0.2968,0.2757,0.2756,0.2755,0.2754,0,0,0.2259,0.2327,0.2332,0.2363,0.2425,0.245,0.2506,0.2569,0.2616,0.2665,0.2738,0.2786,0.2819,0.2839,0.2864,0.2909,0.3018,0.2912,0.2914,0.2974,0.3173,0.3098,0.3109,0.3023,0.3025,0.3027,0.3205,0,0.2262,0.2309,0.2347,0.2396,0.243,0.2492,0.2537,0.2601,0.2661,0.2739,0.2792,0.2859,0.2841,0.289,0.2934,0.3004,0.306,0.2973,0.3107,0.3111,0.3029,0.3124,0.2878,0.3006,0.3221,0.3223,0.3225,0,0.226,0.2299,0.2349,0.2429,0.2451,0.2483,0.259,0.2638,0.2748,0.2807,0.289,0.2931,0.3029,0.2992,0.3133,0.3087,0.3134,0.317,0.3178,0.3095,0.3066,0.2972,0.3028,0.3253,0.3251,0.3249,0.3247,0,0.2228,0.23,0.2343,0.2369,0.2458,0.2505,0.2558,0.2661,0.2742,0.2863,0.2948,0.3036,0.3131,0.3181,0.3255,0.3215,0.3406,0.3356,0.3334,0.3331,0.3137,0.3111,0.3447,0.3447,0.3446,0.3446,0.3445,0,0.2219,0.225,0.2331,0.2355,0.2422,0.2491,0.2582,0.2658,0.2799,0.2904,0.2983,0.3088,0.3187,0.3297,0.3316,0.3393,0.3461,0.3362,0.3374,0.315,0.3124,0.3334,0.3318,0.3452,0.3451,0.345,0.3448,0,0.2175,0.2224,0.2283,0.2378,0.2409,0.2461,0.2606,0.2677,0.2814,0.2968,0.3021,0.3195,0.3319,0.3401,0.3524,0.3496,0.3547,0.3551,0.3291,0.3265,0.3421,0.3406,0.3548,0.3547,0.3546,0.3545,0.3545,0,0.2159,0.2184,0.2285,0.2328,0.2373,0.2462,0.2524,0.2671,0.2767,0.3013,0.3089,0.3275,0.3353,0.3515,0.3509,0.3549,0.3583,0.3337,0.3183,0.3436,0.3434,0.342,0.3407,0.2973,0.2967,0.2963,0.296,0,0.2147,0.2183,0.2235,0.2314,0.2381,0.2454,0.2563,0.2642,0.2823,0.2953,0.312,0.3198,0.3355,0.328,0.3346,0.3318,0.3298,0.3249,0.3613,0.2966,0.2902,0.2896,0.2901,0.2921,0.2925,0.2928,0.293,0.2931,0.2143,0.2167,0.2238,0.2305,0.2381,0.2435,0.2467,0.2573,0.2697,0.2823,0.2992,0.3015,0.3072,0.3019,0.2961,0.2935,0.3134,0.2988,0.2998,0.3013,0.2896,0.2831,0.2818,0.2821,0.2823,0.2826,0.2828,0,0.2137,0.2163,0.2223,0.2283,0.2325,0.2393,0.2483,0.2458,0.2517,0.2638,0.2714,0.2533,0.2509,0.2567,0.2478,0.2495,0.2436,0.2389,0.2287,0.233,0.2367,0.2211,0.1954,0.1951,0.1948,0.1945,0,0,0.2129,0.2164,0.2176,0.2216,0.2258,0.2276,0.2302,0.222,0.2264,0.2223,0.2224,0.2375,0.2506,0.2185,0.2168,0.205,0.2163,0.1975,0.2688,0.2613,0.2645,0.2739,0.2552,0,0,0,0,0]},{"header":{"parameterUnit":"m.s-1","parameterCategory":2,"la1":30.2991,"la2":30.254,"lo1":-89.0895,"lo2":-89.0444,"dy":0.0017,"dx":0.0017,"nx":28,"ny":28,"refTime":"2024-03-30T03:00:00:Z","depth":"2","parameterNumber":3,"parameterNumberName":"V-component_of_CURRENTS"},"data":[0,0,0,0,0,0,0,0,0,0,0,0,0,0,0,0,0,0,0,0,0,0,0,0,0,0,0,0,0,0,0,0,0,0,0,0,0,0,0,0,0,0,0,0,0,0,0,0,0,0,0,0,0,0,0,0,0,0,-0.0079,-0.008,0,-0.0141,-0.0142,-0.0143,-0.0184,-0.0184,-0.0184,-0.0184,-0.0287,-0.029,-0.0292,0,0,0,0,0,0,0,0,0,0,0,0,0,-0.0046,-0.0047,-0.0079,-0.008,-0.0081,-0.0141,-0.0142,-0.0143,-0.0184,-0.0184,-0.0184,-0.0185,-0.0286,-0.0289,-0.0292,0,0,0,0,0,0,0,0,0,0,0,0,0,-0.008,-0.0047,-0.0079,-0.0108,-0.0111,-0.0141,-0.0142,-0.0143,-0.0184,-0.0184,-0.0184,-0.0185,-0.0285,-0.0289,-0.0293,-0.0309,0,0,-0.0304,-0.0306,0,0,0,0,0,0,0,0,-0.0078,-0.0081,-0.0103,-0.0106,-0.0109,-0.0155,-0.0168,-0.0201,-0.0184,-0.0157,-0.0184,-0.0185,-0.0246,-0.0253,-0.0264,-0.0314,-0.0319,-0.0305,-0.0307,-0.0309,-0.031,0,0,0,0,0,0,0,-0.0076,-0.0079,-0.0104,-0.0104,-0.0108,-0.0135,-0.014,-0.0175,-0.02,-0.0159,-0.0162,-0.0168,-0.0248,-0.026,-0.0267,-0.032,-0.0305,-0.0308,-0.031,-0.0312,-0.039,-0.039,0,0,0,0,0,0,-0.0064,-0.0077,-0.0102,-0.0106,-0.0094,-0.0135,-0.0141,-0.014,-0.0199,-0.0207,-0.0168,-0.017,-0.0254,-0.0263,-0.0271,-0.0279,-0.0309,-0.0312,-0.0314,-0.039,-0.039,-0.039,0,0,0,0,0,0,-0.0063,-0.0065,-0.01,-0.0093,-0.0099,-0.0135,-0.0135,-0.0141,-0.0152,-0.0205,-0.0214,-0.0172,-0.0254,-0.0265,-0.0295,-0.0284,-0.0314,-0.0317,-0.0391,-0.039,-0.039,-0.0305,0,0,0,0,0,0,-0.0062,-0.0064,-0.0057,-0.0092,-0.0099,-0.011,-0.0135,-0.0142,-0.0156,-0.0159,-0.0212,-0.0221,-0.0255,-0.0289,-0.0299,-0.0289,-0.032,-0.0391,-0.0391,-0.039,-0.0308,-0.0302,-0.0296,0,0,0,0,0,-0.006,-0.0046,-0.0056,-0.0059,-0.0088,-0.0109,-0.0115,-0.0143,-0.0155,-0.0155,-0.019,-0.022,-0.0294,-0.0291,-0.0303,-0.0295,-0.0391,-0.0391,-0.039,-0.031,-0.0303,-0.0296,0,0,0,0,0,0,-0.0026,-0.005,-0.0061,-0.0054,-0.0077,-0.0116,-0.0116,-0.0138,-0.0165,-0.0166,-0.0217,-0.0229,-0.0252,-0.0287,-0.0283,-0.0318,-0.0348,-0.035,-0.0283,-0.0276,-0.0271,-0.0243,-0.0323,0,0,0,0,0,-0.0014,-0.001,-0.0042,-0.0035,-0.0043,-0.0079,-0.009,-0.0108,-0.0138,-0.015,-0.0186,-0.0225,-0.0259,-0.0277,-0.0313,-0.0331,-0.0362,-0.0335,-0.0329,-0.0323,-0.031,-0.0352,-0.0349,-0.0389,-0.0389,-0.0389,0,0,0.0001,-0.0011,-0.001,-0.0028,-0.0047,-0.0048,-0.0086,-0.0095,-0.0094,-0.0158,-0.0164,-0.0206,-0.026,-0.0278,-0.0292,-0.0306,-0.0328,-0.0323,-0.0318,-0.0307,-0.0352,-0.0348,-0.0344,-0.0388,-0.0388,-0.0388,0,0,0.0032,0.0023,0.0035,0.0021,-0.0,-0.002,-0.002,-0.0053,-0.0064,-0.008,-0.0124,-0.0157,-0.0207,-0.024,-0.0265,-0.0251,-0.0296,-0.0265,-0.0212,-0.0253,-0.025,-0.0247,-0.0274,-0.0274,-0.0261,-0.0261,-0.026,0,0.0052,0.0061,0.0034,0.0041,0.0039,-0.0003,0.0011,-0.0007,-0.0044,-0.0047,-0.007,-0.0139,-0.0188,-0.0211,-0.0205,-0.0237,-0.0261,-0.0231,-0.0244,-0.0242,-0.0241,-0.0269,-0.0271,-0.0256,-0.0257,-0.0257,-0.0258,0,0.0086,0.0095,0.0102,0.01,0.0095,0.0098,0.0074,0.0072,0.0052,0.0029,0.0005,-0.0061,-0.0099,-0.0124,-0.0161,-0.0175,-0.0194,-0.0231,-0.0255,-0.0231,-0.0263,-0.0266,-0.025,-0.0252,-0.0253,-0.0254,0,0,0.0127,0.0127,0.0129,0.0144,0.0128,0.0131,0.0142,0.0137,0.0154,0.0107,0.0118,0.0045,0.001,-0.002,-0.0075,-0.0112,-0.0131,-0.0157,-0.0161,-0.0172,-0.0207,-0.0242,-0.0249,-0.0167,-0.0167,-0.0168,-0.0229,0,0.0162,0.0194,0.0182,0.0217,0.0235,0.0212,0.0229,0.0221,0.0206,0.0208,0.0139,0.0121,0.0049,0.0036,-0.0012,-0.0099,-0.0137,-0.011,-0.0239,-0.0242,-0.0267,-0.0253,-0.0217,-0.027,-0.0232,-0.0233,-0.0233,0,0.0198,0.0218,0.0258,0.0288,0.0294,0.0312,0.0342,0.0351,0.0338,0.0329,0.0296,0.0239,0.0183,0.0117,-0.0014,0.0009,-0.0085,-0.016,-0.0165,-0.0227,-0.0283,-0.0292,-0.0278,-0.0239,-0.0239,-0.0238,-0.0238,0,0.0243,0.0273,0.0312,0.0318,0.0341,0.0368,0.0387,0.0391,0.043,0.0411,0.0439,0.0339,0.0318,0.0179,0.0023,0.0006,-0.0119,-0.017,-0.0289,-0.0293,-0.0302,-0.0306,-0.0261,-0.0261,-0.0261,-0.026,-0.026,0,0.0283,0.0316,0.034,0.0362,0.0428,0.0426,0.0497,0.0503,0.0543,0.0609,0.051,0.0531,0.0335,0.0237,0.0067,-0.011,-0.009,-0.0271,-0.0311,-0.0272,-0.0272,-0.0282,-0.0284,-0.0263,-0.0262,-0.0262,-0.0261,0,0.0321,0.0331,0.0385,0.0428,0.0449,0.0501,0.0592,0.0649,0.0672,0.0762,0.0768,0.0692,0.0549,0.0345,0.0125,-0.0032,-0.0219,-0.0289,-0.0222,-0.0254,-0.0376,-0.0373,-0.0431,-0.0433,-0.0434,-0.0436,-0.0437,0,0.0341,0.0369,0.0437,0.0486,0.051,0.059,0.0654,0.0709,0.0791,0.0861,0.0917,0.0814,0.0738,0.0402,0.0101,-0.0196,-0.023,-0.0345,-0.0388,-0.036,-0.0394,-0.0388,-0.0383,-0.0362,-0.0363,-0.0363,-0.0363,0,0.0384,0.0406,0.0455,0.0556,0.0635,0.073,0.0836,0.0919,0.1004,0.1076,0.1133,0.1073,0.0764,0.0455,0.0058,-0.0144,-0.0303,-0.0362,-0.0345,-0.0329,-0.0302,-0.0333,-0.0329,-0.0366,-0.0366,-0.0365,-0.0365,-0.0365,0.042,0.0463,0.0535,0.0633,0.0738,0.0867,0.0947,0.1068,0.1199,0.1294,0.1257,0.1186,0.0855,0.0324,-0.0006,-0.0332,-0.0339,-0.0451,-0.0447,-0.0443,-0.0429,-0.0406,-0.0486,-0.0486,-0.0486,-0.0487,-0.0487,0,0.046,0.0514,0.0608,0.0727,0.085,0.0906,0.1067,0.1139,0.1279,0.1359,0.1374,0.1086,0.0743,0.0388,-0.0099,-0.0414,-0.0428,-0.0501,-0.044,-0.0436,-0.0432,-0.0415,-0.047,-0.0471,-0.0471,-0.0472,0,0,0.0478,0.0569,0.0615,0.0806,0.0902,0.1036,0.1125,0.1228,0.1314,0.1382,0.137,0.1247,0.085,0.0503,0.0083,-0.0179,-0.0236,-0.0238,-0.0221,-0.0097,-0.0089,-0.0377,-0.0343,0,0,0,0,0]}],[{"header":{"parameterUnit":"m.s-1","parameterCategory":2,"la1":30.2991,"la2":30.254,"lo1":-89.0895,"lo2":-89.0444,"dy":0.0017,"dx":0.0017,"nx":28,"ny":28,"refTime":"2024-03-30T03:00:00:Z","depth":"4","parameterNumber":2,"parameterNumberName":"U-component_of_CURRENTS"},"data":[0,0,0,0,0,0,0,0,0,0,0,0,0,0,0,0,0,0,0,0,0,0,0,0,0,0,0,0,0,0,0,0,0,0,0,0,0,0,0,0,0,0,0,0,0,0,0,0,0,0,0,0,0,0,0,0,0,0,0.1488,0.1488,0,0.1541,0.1542,0.1542,0.1597,0.1598,0.1598,0.1599,0.1654,0.1655,0.1655,0,0,0,0,0,0,0,0,0,0,0,0,0,0.139,0.1391,0.1488,0.1488,0.1489,0.1541,0.1542,0.1542,0.1596,0.1598,0.1599,0.16,0.1654,0.1654,0.1655,0,0,0,0,0,0,0,0,0,0,0,0,0,0.1435,0.1392,0.1487,0.1524,0.1528,0.1541,0.1542,0.1543,0.1596,0.1598,0.1599,0.16,0.1654,0.1654,0.1655,0.1632,0,0,0.1658,0.1658,0,0,0,0,0,0,0,0,0.1432,0.1438,0.1518,0.1522,0.1526,0.1566,0.1528,0.1573,0.1596,0.1568,0.1599,0.1601,0.1625,0.1628,0.1632,0.1635,0.1637,0.1658,0.1658,0.1659,0.1659,0,0,0,0,0,0,0,0.1429,0.1436,0.1507,0.1519,0.1524,0.1524,0.1532,0.1536,0.1586,0.157,0.1575,0.1584,0.1627,0.1631,0.1634,0.1638,0.1658,0.1659,0.1659,0.166,0.174,0.1741,0,0,0,0,0,0,0.1428,0.1433,0.1505,0.1508,0.1484,0.1525,0.1534,0.155,0.1586,0.1594,0.1583,0.1587,0.1629,0.1633,0.1636,0.1709,0.1659,0.166,0.166,0.1738,0.174,0.1742,0,0,0,0,0,0,0.1426,0.1434,0.1503,0.1473,0.1482,0.1526,0.1543,0.155,0.159,0.1596,0.1604,0.162,0.163,0.1635,0.1669,0.1708,0.166,0.1661,0.1736,0.1739,0.1741,0.1793,0,0,0,0,0,0,0.1423,0.1433,0.1455,0.1473,0.1484,0.1533,0.1542,0.155,0.1593,0.1599,0.1629,0.1634,0.1632,0.1668,0.167,0.1709,0.1662,0.1734,0.1737,0.174,0.1789,0.1797,0.1804,0,0,0,0,0,0.1419,0.144,0.1456,0.1466,0.151,0.1534,0.154,0.1572,0.1593,0.1613,0.1637,0.1635,0.1689,0.167,0.1672,0.1711,0.1733,0.1736,0.174,0.1786,0.1796,0.1803,0,0,0,0,0,0,0.141,0.1448,0.1466,0.1499,0.1526,0.1545,0.157,0.159,0.1623,0.1638,0.1645,0.1651,0.1698,0.1696,0.1674,0.1745,0.1715,0.1719,0.1749,0.1758,0.1765,0.1764,0.1662,0,0,0,0,0,0.1418,0.1448,0.1476,0.1508,0.1523,0.1552,0.1572,0.1594,0.1619,0.1637,0.1659,0.1685,0.1707,0.1727,0.174,0.1772,0.1783,0.1803,0.181,0.1816,0.1818,0.1869,0.188,0.1754,0.1753,0.1753,0,0,0.1424,0.145,0.1469,0.1509,0.1534,0.1555,0.1569,0.1607,0.1633,0.1635,0.1688,0.1708,0.1721,0.1761,0.1783,0.1769,0.1861,0.1821,0.1826,0.1824,0.1874,0.1886,0.1897,0.1756,0.1756,0.1755,0,0,0.1438,0.1476,0.1501,0.1524,0.1567,0.158,0.1598,0.1635,0.1666,0.1706,0.1722,0.1764,0.1797,0.1816,0.1828,0.1881,0.1894,0.19,0.1939,0.1989,0.1999,0.2009,0.2048,0.206,0.1907,0.1907,0.1908,0,0.1445,0.1479,0.1511,0.1536,0.1558,0.1594,0.1617,0.1647,0.1693,0.1725,0.1733,0.1812,0.182,0.1875,0.1897,0.1897,0.1929,0.1903,0.1998,0.2007,0.2016,0.2054,0.2067,0.191,0.191,0.191,0.191,0,0.1466,0.1502,0.1519,0.1562,0.1588,0.1616,0.1653,0.1698,0.1739,0.177,0.1847,0.1868,0.1921,0.1934,0.193,0.2007,0.2011,0.1998,0.1974,0.2032,0.2068,0.2081,0.1915,0.1914,0.1913,0.1912,0,0,0.1455,0.1521,0.153,0.1552,0.1605,0.1622,0.1679,0.1733,0.1788,0.1841,0.1915,0.1956,0.1994,0.201,0.2028,0.2065,0.2151,0.2067,0.2068,0.2102,0.2272,0.2126,0.2125,0.2168,0.217,0.2172,0.2275,0,0.1463,0.1504,0.154,0.1581,0.1599,0.1654,0.1702,0.1761,0.1824,0.1905,0.1956,0.203,0.2017,0.2068,0.2104,0.2145,0.2187,0.2125,0.2214,0.2216,0.2075,0.2135,0.2179,0.2285,0.2288,0.229,0.2291,0,0.1464,0.1491,0.153,0.1591,0.1608,0.1645,0.1736,0.1784,0.1898,0.1959,0.2049,0.2103,0.2188,0.2165,0.2266,0.2236,0.2263,0.2278,0.2283,0.2132,0.2092,0.2213,0.2314,0.2312,0.2311,0.2309,0.2308,0,0.1422,0.1482,0.1513,0.1532,0.1606,0.1653,0.1704,0.1809,0.1868,0.2014,0.2085,0.219,0.2266,0.2317,0.2361,0.2338,0.2457,0.2425,0.2315,0.2305,0.2383,0.2372,0.2492,0.2492,0.2491,0.2491,0.2491,0,0.1398,0.1425,0.1503,0.1519,0.1569,0.1634,0.1717,0.1795,0.1919,0.2,0.2117,0.2197,0.2312,0.2392,0.2408,0.2402,0.2504,0.2329,0.2323,0.2404,0.2393,0.2393,0.238,0.2495,0.2494,0.2493,0.2493,0,0.1339,0.1395,0.1432,0.1519,0.1551,0.1588,0.1712,0.1774,0.1903,0.2019,0.2078,0.2238,0.2342,0.2423,0.2519,0.2449,0.2463,0.2435,0.2532,0.2529,0.2268,0.2257,0.2319,0.2314,0.2311,0.2308,0.2305,0,0.1308,0.1321,0.1415,0.1443,0.1489,0.1562,0.162,0.1755,0.1818,0.2023,0.2063,0.223,0.2322,0.2337,0.2426,0.2458,0.2423,0.2415,0.2313,0.2262,0.2252,0.2247,0.2241,0.2299,0.2298,0.2297,0.2296,0,0.123,0.128,0.1311,0.1373,0.1435,0.1493,0.1583,0.1615,0.1779,0.1923,0.2015,0.2085,0.2193,0.2257,0.2304,0.2315,0.2408,0.2376,0.2382,0.2287,0.224,0.2232,0.223,0.2284,0.2285,0.2287,0.2287,0,0.117,0.1175,0.1229,0.1275,0.1348,0.1385,0.1452,0.1528,0.1606,0.1822,0.1858,0.2028,0.2183,0.2185,0.2227,0.223,0.2184,0.2098,0.2118,0.2133,0.202,0.193,0.1882,0,0,0,0,0,0.1095,0.1092,0.1124,0.1162,0.1237,0.1286,0.1405,0.1479,0.1642,0.1663,0.1751,0.1848,0.1928,0.2009,0.1973,0.213,0.2182,0.2078,0.2089,0.2214,0.2228,0.211,0,0,0,0,0,0,0.1042,0.1063,0.1078,0.1059,0.1073,0.1142,0.1218,0.1337,0.1346,0.1527,0.1577,0.1726,0.1823,0.1929,0.1935,0.1959,0.1925,0.2184,0.2179,0.2205,0.2218,0.223,0.2114,0,0,0,0,0]},{"header":{"parameterUnit":"m.s-1","parameterCategory":2,"la1":30.2991,"la2":30.254,"lo1":-89.0895,"lo2":-89.0444,"dy":0.0017,"dx":0.0017,"nx":28,"ny":28,"refTime":"2024-03-30T03:00:00:Z","depth":"4","parameterNumber":3,"parameterNumberName":"V-component_of_CURRENTS"},"data":[0,0,0,0,0,0,0,0,0,0,0,0,0,0,0,0,0,0,0,0,0,0,0,0,0,0,0,0,0,0,0,0,0,0,0,0,0,0,0,0,0,0,0,0,0,0,0,0,0,0,0,0,0,0,0,0,0,0,-0.0103,-0.0104,0,-0.0143,-0.0144,-0.0144,-0.0174,-0.0174,-0.0174,-0.0175,-0.0249,-0.025,-0.0252,0,0,0,0,0,0,0,0,0,0,0,0,0,-0.0086,-0.0086,-0.0103,-0.0104,-0.0104,-0.0143,-0.0144,-0.0144,-0.0174,-0.0174,-0.0174,-0.0175,-0.0248,-0.025,-0.0252,0,0,0,0,0,0,0,0,0,0,0,0,0,-0.0107,-0.0086,-0.0103,-0.0124,-0.0126,-0.0143,-0.0144,-0.0144,-0.0174,-0.0174,-0.0174,-0.0175,-0.0248,-0.025,-0.0253,-0.0262,0,0,-0.0261,-0.0262,0,0,0,0,0,0,0,0,-0.0105,-0.0107,-0.012,-0.0122,-0.0125,-0.0154,-0.0165,-0.0185,-0.0174,-0.0156,-0.0175,-0.0175,-0.022,-0.0225,-0.0231,-0.0265,-0.0268,-0.0261,-0.0263,-0.0264,-0.0264,0,0,0,0,0,0,0,-0.0104,-0.0106,-0.0119,-0.0121,-0.0123,-0.0142,-0.0145,-0.0169,-0.0186,-0.0157,-0.016,-0.0163,-0.0221,-0.0229,-0.0233,-0.0269,-0.0261,-0.0263,-0.0265,-0.0266,-0.0331,-0.0331,0,0,0,0,0,0,-0.0096,-0.0104,-0.0118,-0.0121,-0.0115,-0.0142,-0.0145,-0.0144,-0.0185,-0.0191,-0.0163,-0.0165,-0.0224,-0.023,-0.0236,-0.0249,-0.0264,-0.0266,-0.0268,-0.033,-0.0331,-0.0331,0,0,0,0,0,0,-0.0096,-0.0097,-0.0117,-0.0114,-0.0117,-0.0141,-0.014,-0.0145,-0.0154,-0.0189,-0.0196,-0.0168,-0.0224,-0.0232,-0.0256,-0.0253,-0.0267,-0.027,-0.033,-0.033,-0.0331,-0.0276,0,0,0,0,0,0,-0.0095,-0.0096,-0.0093,-0.0113,-0.0117,-0.0123,-0.014,-0.0145,-0.0156,-0.0158,-0.0195,-0.0203,-0.0225,-0.0252,-0.0258,-0.0256,-0.0272,-0.033,-0.033,-0.0331,-0.0278,-0.0274,-0.0272,0,0,0,0,0,-0.0094,-0.0085,-0.0092,-0.0094,-0.0111,-0.0123,-0.0127,-0.0146,-0.0155,-0.0156,-0.0182,-0.0201,-0.0259,-0.0254,-0.0262,-0.026,-0.033,-0.033,-0.0331,-0.0279,-0.0275,-0.0272,0,0,0,0,0,0,-0.0073,-0.0088,-0.0096,-0.0091,-0.0105,-0.0128,-0.0129,-0.0143,-0.0164,-0.0166,-0.0201,-0.021,-0.0231,-0.0255,-0.0248,-0.0281,-0.0299,-0.03,-0.0257,-0.0253,-0.025,-0.0224,-0.0274,0,0,0,0,0,-0.0067,-0.0065,-0.0083,-0.0079,-0.0084,-0.0107,-0.0114,-0.0126,-0.0147,-0.0156,-0.0182,-0.0212,-0.0238,-0.0252,-0.0278,-0.0294,-0.0319,-0.03,-0.0297,-0.0294,-0.028,-0.0319,-0.0318,-0.0332,-0.0332,-0.0332,0,0,-0.0058,-0.0065,-0.0064,-0.0075,-0.0086,-0.0084,-0.0112,-0.0118,-0.0115,-0.0161,-0.0167,-0.0202,-0.024,-0.0257,-0.0269,-0.0276,-0.0306,-0.0295,-0.0292,-0.0278,-0.0319,-0.0318,-0.0316,-0.0332,-0.0332,-0.0332,0,0,-0.0035,-0.0044,-0.0034,-0.0042,-0.0056,-0.0068,-0.0068,-0.009,-0.0099,-0.0112,-0.0145,-0.0174,-0.0212,-0.0236,-0.0254,-0.0251,-0.0289,-0.0266,-0.0227,-0.0266,-0.0265,-0.0264,-0.0299,-0.0302,-0.0263,-0.0263,-0.0263,0,-0.0024,-0.0013,-0.0034,-0.0027,-0.0026,-0.0056,-0.0043,-0.0055,-0.0082,-0.0084,-0.0106,-0.0163,-0.0199,-0.0217,-0.0217,-0.0242,-0.027,-0.0236,-0.0261,-0.026,-0.026,-0.0296,-0.03,-0.0261,-0.0261,-0.0261,-0.0261,0,0.0004,0.0013,0.0019,0.0021,0.0018,0.0023,0.0007,0.0005,-0.0012,-0.003,-0.0054,-0.0107,-0.0137,-0.0161,-0.0188,-0.0206,-0.0229,-0.0252,-0.0265,-0.0255,-0.0295,-0.0299,-0.0257,-0.0258,-0.0259,-0.0259,0,0,0.0032,0.0038,0.004,0.0055,0.0045,0.0051,0.006,0.0061,0.0073,0.0031,0.0035,-0.0022,-0.0055,-0.0077,-0.0124,-0.016,-0.0194,-0.0201,-0.0204,-0.0225,-0.0278,-0.0278,-0.0284,-0.0224,-0.0225,-0.0225,-0.0307,0,0.0061,0.0089,0.0084,0.0118,0.0133,0.012,0.0135,0.013,0.0114,0.0109,0.0051,0.003,-0.0022,-0.0041,-0.0084,-0.0168,-0.0203,-0.0169,-0.0292,-0.0296,-0.0289,-0.0288,-0.0226,-0.031,-0.0311,-0.0312,-0.0313,0,0.009,0.0107,0.0142,0.0175,0.0182,0.02,0.0225,0.0235,0.0218,0.0204,0.017,0.0119,0.0063,0.0014,-0.011,-0.0087,-0.0169,-0.0238,-0.0244,-0.0261,-0.0304,-0.0323,-0.0322,-0.0321,-0.0321,-0.032,-0.032,0,0.012,0.0153,0.0186,0.0193,0.022,0.0244,0.0263,0.0264,0.0281,0.0263,0.0259,0.0186,0.014,0.0036,-0.0105,-0.0109,-0.0249,-0.0275,-0.035,-0.0351,-0.0351,-0.0351,-0.0354,-0.0354,-0.0353,-0.0353,-0.0353,0,0.0151,0.0181,0.0207,0.0226,0.028,0.0286,0.0338,0.0346,0.0353,0.037,0.031,0.029,0.0141,0.0041,-0.0082,-0.0228,-0.0233,-0.0335,-0.0369,-0.0328,-0.0324,-0.0355,-0.0354,-0.0356,-0.0356,-0.0355,-0.0354,0,0.0173,0.0187,0.0232,0.0273,0.0294,0.0333,0.0392,0.0424,0.0427,0.0444,0.0439,0.0358,0.0229,0.0077,-0.0105,-0.0199,-0.0338,-0.0389,-0.0327,-0.0357,-0.042,-0.0415,-0.0471,-0.0472,-0.0473,-0.0473,-0.0473,0,0.0183,0.0203,0.0264,0.0296,0.0319,0.038,0.0422,0.0457,0.0486,0.048,0.0483,0.0378,0.0302,0.0063,-0.0106,-0.0327,-0.0363,-0.0428,-0.0424,-0.0403,-0.0431,-0.0425,-0.042,-0.0474,-0.0474,-0.0474,-0.0474,0,0.0196,0.0215,0.0251,0.0317,0.0372,0.0439,0.0499,0.0526,0.0556,0.0561,0.0525,0.0407,0.026,0.007,-0.0103,-0.0265,-0.0379,-0.0434,-0.0434,-0.0431,-0.0407,-0.0433,-0.0427,-0.0476,-0.0476,-0.0476,-0.0476,0,0.02,0.0225,0.0269,0.0333,0.0401,0.0465,0.0507,0.0543,0.0577,0.0573,0.0555,0.0412,0.0329,0.01,-0.0062,-0.0216,-0.0259,-0.0303,-0.0311,-0.0311,-0.0243,-0.0188,-0.021,0,0,0,0,0,0.0195,0.0224,0.0281,0.0349,0.0417,0.0465,0.0538,0.0572,0.0602,0.0589,0.0579,0.0451,0.0225,0.0126,-0.0029,-0.0097,-0.0305,-0.0284,-0.0365,-0.0486,-0.0484,-0.0432,0,0,0,0,0,0,0.0188,0.0234,0.0272,0.0348,0.04,0.048,0.0533,0.0561,0.0559,0.0567,0.0452,0.0415,0.0191,0.0313,-0.0031,-0.0079,-0.015,-0.0385,-0.0388,-0.0487,-0.0485,-0.0484,-0.0429,0,0,0,0,0]}]]